{"data":{"norad_id":66459,"intl_designator":"2025-262D","name":"STARLINK-35449","alt_names":[],"object_type":"PAYLOAD","status":"ACTIVE","operator":null,"country":"US","launch_date":"2025-11-15","launch_site_code":"AFETR","launch_vehicle":null,"mission":null,"orbit_class":"UNKNOWN","rcs_meters":null,"size_class":null,"mass_kg":null,"dimensions":null,"purposes":["comms"],"wikipedia_slug":null,"has_3d_model":false,"image_url":null,"decayed_at":null,"tle_current":{"epoch":"2026-05-24T22:06:12.449088Z","epoch_age_seconds":78706,"freshness":"FRESH","line1":"1 66459U 25262D   26144.92097742  .00020449  00000+0  75041-3 0  9992","line2":"2 66459  43.0006 225.7758 0001253 268.2439  91.8269 15.27586677 30569","mean_motion":15.27586677,"eccentricity":0.0001253,"inclination_deg":43.0006,"raan_deg":225.7758,"arg_perigee_deg":268.2439,"mean_anomaly_deg":91.8269,"bstar":0.00075041,"rev_number":3056,"period_min":94.266336678714,"perigee_km":482.16939865976,"apogee_km":483.88880688512,"semimajor_km":6861.1661027724,"source":"CELESTRAK","updated_at":"2026-05-25T13:38:21.214375Z"}}}